Wetbulb
19.36 22.12 22.09 21.78 22.39 24.59 24.89 27.85 22.67 25.68 26.00 28.99 30.91 30.57 31.18 30.21 30.49 30.42 30.94 32.35 33.23 32.71 32.51 32.55 32.16 32.46 32.79 32.73 33.09 33.35 32.78 32.52 31.82 31.91 31.83 31.60 30.94 29.87 29.30 28.77 28.21 27.97 26.97 26.64
17.56 22.37 23.17 21.97 24.68 26.72 29.05 29.08 28.51 28.41 27.34 32.99 32.78 32.10 30.08 28.75 28.51 27.90 29.21 30.66 31.89 32.00 32.15 31.90 32.08 31.86 32.07 31.80 31.74 32.56 31.75 31.01 31.35 31.07 30.21 29.29 28.68 27.91 27.16 26.72 26.32 26.03 25.48 25.43
7.51 19.84 20.75 16.25 25.45 26.68 28.87 30.77 29.87 25.21 29.28 31.92 29.20 29.39 29.10 28.19 28.14 26.99 27.35 29.40 30.12 30.95 31.39 31.77 31.65 32.05 31.60 31.95 32.59 31.72 30.83 30.26 29.55 29.15 28.01 27.44 27.00 26.23 25.60 25.23 25.61 25.09 25.54 25.99
9.81 11.48 7.12 24.57 29.87 29.55 29.08 30.53 32.12 29.31 29.56 30.26 29.49 31.31 31.11 30.44 28.85 27.85 27.87 28.41 29.94 30.79 31.08 31.52 31.86 31.77 31.67 31.42 30.66 29.68 28.74 28.33 28.48 27.57 26.25 26.48 25.99 25.68 25.97 25.86 25.08 24.95 25.33 25.82
6.90 4.62 16.33 24.68 26.77 26.44 27.10 28.46 29.92 27.51 29.09 29.27 30.66 32.83 30.83 30.73 30.81 28.90 28.82 29.66 30.26 31.11 31.37 31.50 31.24 31.55 31.04 30.20 29.54 28.41 27.28 26.94 26.94 26.53 25.76 25.58 25.25 25.32 25.44 25.06 24.55 24.79 25.11 24.93
-0.71 7.14 3.04 22.53 27.70 30.35 31.75 24.09 28.78 28.70 27.85 27.69 30.20 24.78 26.06 29.77 30.54 29.64 29.63 29.44 29.53 29.96 29.53 29.65 30.29 30.67 29.02 28.04 27.60 26.43 26.68 26.58 26.48 26.42 25.62 24.59 24.22 23.71 23.92 24.24 23.46 23.79 23.53 23.38
8.00 7.48 12.30 24.61 28.31 31.20 21.97 26.06 28.07 28.63 28.05 28.11 27.84 29.88 30.63 30.28 29.47 29.99 29.50 29.60 29.57 28.80 27.43 28.02 29.39 29.00 26.77 26.25 24.52 25.66 25.88 25.29 24.79 24.67 23.95 23.70 23.02 22.97 22.84 22.40 22.15 21.19 20.67 21.05
13.39 6.68 8.60 27.61 27.13 23.71 29.05 28.27 27.03 26.74 28.12 27.83 30.24 31.59 30.49 29.18 28.47 28.75 28.12 28.30 28.39 26.96 26.30 27.25 28.08 26.74 24.57 23.09 24.03 23.98 23.69 23.17 22.82 23.05 23.58 23.18 22.42 22.28 22.05 21.21 19.82 18.86 18.34 18.32
17.66 18.28 26.76 29.11 29.17 29.52 27.70 26.78 26.64 26.22 28.57 28.39 30.66 30.11 28.92 28.19 28.13 28.19 28.22 27.94 27.97 26.72 25.13 25.20 25.58 25.19 22.49 22.67 23.18 22.69 22.47 22.12 22.29 22.90 23.39 23.20 22.07 21.08 20.18 19.98 18.46 17.49 17.71 17.03
22.48 23.24 25.01 27.21 28.64 27.23 27.61 27.19 27.22 27.99 27.67 28.36 30.03 29.72 28.45 28.25 27.75 27.57 27.71 27.35 27.29 25.90 23.86 22.99 24.07 24.45 23.93 23.77 24.04 23.38 21.75 21.26 21.47 21.16 20.96 21.13 21.66 21.12 19.85 18.80 17.70 17.52 17.18 16.10
17.91 23.37 24.85 27.20 26.45 27.55 27.05 26.47 26.84 27.17 27.41 26.80 29.68 28.46 28.09 27.10 26.65 26.52 26.28 26.29 26.28 24.90 23.54 23.17 23.81 23.63 24.39 24.58 24.21 22.15 21.84 21.02 20.48 20.00 19.29 19.16 19.41 18.53 18.23 17.80 18.63 15.74 13.49 15.27
17.90 23.37 23.28 26.01 25.32 26.19 25.91 25.00 24.90 24.94 25.65 26.08 27.52 27.54 26.87 25.56 25.85 25.88 25.26 25.34 24.31 23.93 23.53 23.57 23.85 22.66 22.48 23.41 22.42 21.07 19.82 19.45 18.83 18.10 18.60 20.40 20.87 20.99 26.15 25.17 24.77 23.55 22.08 17.26
22.90 22.36 24.46 23.95 23.90 22.88 23.82 21.53 21.30 20.38 21.27 22.76 23.13 25.59 25.11 23.75 24.21 25.00 24.37 24.21 23.86 23.46 23.95 24.13 23.75 23.27 22.31 21.41 20.13 18.61 20.56 18.44 15.92 16.27 16.95 17.68 18.21 18.73 19.47 22.92 25.21 24.63 23.76 22.68
21.68 23.49 21.02 22.65 22.84 23.79 22.46 20.68 18.07 15.05 13.80 15.83 17.09 21.12 22.56 22.83 23.37 23.85 23.38 24.12 24.84 24.67 24.93 25.12 24.77 24.01 23.57 22.16 18.72 16.70 15.46 14.41 16.09 15.85 12.87 11.56 11.71 10.72 15.97 13.79 9.64 8.69 17.68 17.29
21.22 18.41 20.35 16.98 15.60 14.09 12.75 13.36 11.90 12.60 11.09 11.92 10.62 16.88 23.15 23.34 22.63 22.75 23.40 23.61 23.88 24.15 23.83 23.53 22.77 21.86 24.56 23.21 17.62 17.47 13.78 12.04 11.78 10.66 9.81 10.46 10.40 9.07 7.27 5.29 0.71 -2.25 -2.71 5.67
10.74 4.67 7.66 12.70 12.40 8.19 7.98 6.93 10.37 9.69 6.26 5.69 6.95 8.44 18.77 21.87 22.15 21.93 22.94 23.77 23.40 22.07 21.52 21.70 20.39 18.50 15.24 20.52 20.07 16.95 7.37 9.90 9.32 8.71 8.01 8.74 9.07 6.66 3.39 -0.65 -5.12 -7.35 -8.56 -6.51
11.58 10.80 6.27 9.57 10.66 7.48 10.41 6.16 9.01 9.61 6.44 9.75 10.67 4.93 6.60 20.22 19.74 19.06 17.23 17.51 18.29 16.48 17.08 18.99 14.99 15.54 20.17 21.55 20.11 12.83 7.39 6.23 6.57 4.28 3.27 2.94 3.78 3.88 0.95 -3.06 -7.29 -11.52 -8.98 -7.76
7.11 7.16 16.89 14.58 16.24 14.00 4.65 1.14 1.86 6.82 7.22 6.76 5.02 4.10 3.65 20.99 20.64 17.07 13.77 11.83 11.68 11.31 8.75 5.32 10.83 13.31 15.88 16.60 14.24 7.35 6.67 4.19 3.84 1.93 -2.16 -1.50 -3.75 -3.71 -4.44 -6.15 -12.06 -10.63 -10.23 -9.87
0.72 5.06 -0.72 2.54 1.35 7.28 9.54 6.59 4.61 2.95 4.12 6.83 6.92 7.99 3.89 5.19 16.41 13.33 8.20 1.90 0.27 5.00 5.08 -2.72 10.85 0.60 0.70 1.13 5.11 6.55 5.12 2.84 0.37 -3.30 -4.27 -3.77 -9.21 -13.02 -8.13 -10.63 -13.87 -15.98 -15.96 -14.27
-1.87 -3.86 -2.70 -4.54 -6.58 2.03 4.35 -2.99 3.84 4.48 3.31 6.34 4.56 3.31 2.47 -2.64 -2.65 -2.60 -5.83 -1.97 -0.94 -1.15 -7.53 -6.22 -4.14 -0.90 -0.53 5.79 7.28 2.37 3.00 2.85 1.39 -3.97 -5.55 -7.04 -7.69 -9.78 -12.26 -8.78 -11.33 -15.11 -18.31 -17.46
9.37 4.37 3.25 4.90 -1.29 -6.15 1.33 6.36 8.87 8.07 2.92 4.98 8.34 7.05 4.37 -3.98 -5.21 -5.21 -3.17 1.26 1.22 -6.91 -7.51 -2.69 -3.26 -2.74 -2.54 1.85 2.69 0.20 -1.11 -0.49 1.78 0.82 -1.54 -5.11 -10.16 -12.19 -11.26 -11.99 -4.31 -11.62 -15.79 -17.09
6.13 7.01 5.61 2.30 3.69 -0.20 -4.77 -1.27 5.44 6.82 5.28 2.89 0.50 2.39 2.10 -2.61 -3.65 -5.10 -3.77 4.39 -1.04 -2.53 -5.33 -4.43 -3.80 -1.55 0.03 5.48 2.41 2.36 1.81 1.69 0.73 -2.42 -4.70 -7.49 -7.10 -8.44 -9.75 -6.27 -5.20 -6.49 -11.30 -10.90
8.02 4.75 3.33 2.77 5.30 6.16 -4.75 -1.39 4.04 8.90 7.80 6.31 5.99 5.60 8.13 7.22 6.09 5.56 6.09 2.35 0.39 0.33 0.28 -0.17 -0.32 4.02 4.91 2.31 4.13 3.89 2.99 2.18 1.10 -0.17 -2.33 -4.66 -5.65 -7.61 -4.29 -3.88 -4.98 -5.87 -8.14 -7.89
5.57 2.77 1.04 -1.18 0.83 2.19 5.36 2.08 0.78 0.81 3.19 1.21 3.94 4.91 4.78 3.39 -0.15 -1.95 -3.42 1.58 3.35 7.36 2.23 1.49 9.59 13.12 5.03 1.32 3.51 3.75 3.46 2.19 0.48 -2.05 -4.14 -4.06 -4.02 -1.86 -4.60 -4.89 -6.12 -6.25 -7.20 -7.12
5.15 2.87 1.55 4.32 8.14 10.64 4.70 2.20 -0.35 -3.78 -1.43 -1.46 -2.45 -2.02 0.04 -0.36 6.16 4.11 0.18 3.19 7.08 2.03 0.94 8.44 14.03 10.77 2.41 2.67 3.38 3.33 2.37 0.93 -0.39 -1.93 -0.94 0.52 -0.83 -2.32 -3.02 -5.63 -6.90 -6.50 -5.63 -5.88
6.71 9.01 8.17 7.29 10.25 8.79 8.82 6.87 10.55 5.76 4.01 1.23 -4.40 -0.63 -2.81 -3.46 -1.03 0.76 1.39 2.78 2.62 2.62 3.25 4.74 6.07 4.41 3.65 3.40 2.92 2.55 1.43 0.17 0.14 0.52 1.09 0.08 -1.05 -2.47 -3.73 -5.03 -6.06 -4.91 -4.41 -4.52
-0.59 1.66 0.99 0.11 -2.57 5.35 8.76 10.30 9.81 7.21 6.70 8.46 6.98 -0.69 0.42 -1.66 -0.72 1.27 2.31 2.31 1.42 1.22 1.25 -1.52 -0.38 1.17 0.74 0.48 0.39 0.05 -0.18 0.49 1.19 0.39 -0.42 -0.99 -2.09 -2.93 -3.87 -4.73 -4.08 -4.08 -3.91 -3.98
MSLP
1026.88 1025.33 1024.38 1023.16 1022.10 1020.88 1020.12 1018.94 1018.13 1016.37 1015.18 1014.28 1013.61 1013.13 1012.59 1012.36 1011.35 1010.42 1009.57 1008.78 1008.19 1007.85 1007.50 1007.30 1007.26 1007.08 1007.58 1007.94 1008.58 1009.58 1010.76 1012.61 1013.76 1015.08 1016.17 1017.18 1019.13 1020.37 1021.19 1022.27 1023.80 1025.21 1024.99 1025.77
1026.39 1024.55 1023.69 1022.54 1021.26 1020.35 1019.51 1018.65 1017.68 1016.65 1015.57 1015.00 1013.98 1013.68 1013.31 1012.74 1012.01 1011.29 1010.47 1009.67 1009.14 1008.76 1008.48 1008.38 1008.57 1008.64 1009.13 1009.49 1010.00 1010.61 1012.34 1013.36 1014.68 1016.30 1017.28 1018.45 1020.05 1021.70 1021.98 1023.45 1024.40 1025.18 1025.40 1025.58
1027.55 1025.13 1023.43 1022.05 1020.36 1019.77 1019.26 1018.48 1017.97 1017.27 1016.46 1015.46 1014.25 1013.90 1013.98 1013.40 1012.98 1012.39 1011.59 1010.86 1010.33 1010.09 1009.91 1009.70 1009.83 1010.11 1009.85 1011.02 1011.30 1012.32 1013.65 1014.75 1016.38 1017.65 1018.54 1019.75 1021.12 1021.93 1023.13 1024.40 1025.07 1025.61 1025.99 1026.29
1028.70 1026.47 1023.99 1021.03 1019.78 1019.24 1019.08 1018.35 1018.26 1017.89 1016.87 1016.49 1015.39 1014.71 1014.82 1014.45 1013.96 1013.39 1012.88 1012.28 1011.89 1011.65 1011.45 1011.35 1011.25 1011.53 1011.95 1012.36 1012.67 1013.58 1015.20 1016.33 1017.88 1018.88 1019.88 1021.13 1022.22 1022.90 1024.31 1025.04 1026.07 1026.71 1026.75 1027.30
1030.15 1028.62 1024.68 1020.94 1019.55 1019.30 1019.20 1018.65 1018.68 1018.14 1017.13 1016.81 1015.68 1014.85 1015.11 1015.25 1014.99 1014.62 1014.27 1013.87 1013.52 1013.31 1013.20 1012.69 1012.86 1013.11 1013.25 1014.11 1014.41 1015.61 1017.05 1018.20 1019.50 1020.43 1020.96 1022.13 1022.96 1023.71 1024.69 1025.76 1026.71 1027.15 1027.81 1028.34
1030.61 1029.35 1025.53 1021.14 1019.63 1019.01 1019.09 1019.15 1018.83 1018.61 1018.05 1017.39 1016.48 1015.81 1016.68 1016.47 1015.94 1015.71 1015.47 1015.24 1014.96 1014.85 1014.81 1014.99 1015.10 1014.94 1015.19 1015.99 1016.83 1018.01 1019.04 1020.08 1020.70 1021.20 1021.95 1023.25 1023.72 1024.48 1025.32 1026.12 1027.08 1028.45 1028.88 1028.86
1030.25 1028.97 1024.62 1020.73 1019.63 1019.09 1019.47 1020.04 1019.12 1019.31 1019.08 1018.43 1018.07 1018.29 1018.18 1017.78 1017.31 1016.97 1016.72 1016.60 1016.51 1016.37 1016.53 1016.98 1016.82 1016.72 1017.49 1018.32 1019.20 1020.17 1020.94 1021.77 1022.09 1022.63 1022.94 1023.75 1024.46 1025.17 1026.23 1027.42 1028.36 1028.93 1028.98 1029.39
1029.15 1027.66 1023.73 1020.20 1019.53 1019.63 1019.74 1019.70 1019.85 1019.96 1019.75 1019.43 1018.91 1018.61 1018.66 1018.59 1018.43 1018.29 1018.29 1018.24 1018.17 1018.19 1018.65 1018.84 1018.83 1018.84 1019.84 1020.60 1021.50 1021.92 1022.38 1022.65 1023.10 1023.77 1024.49 1024.74 1025.67 1026.75 1027.60 1028.28 1028.61 1029.10 1029.80 1030.23
1025.76 1023.15 1020.72 1019.90 1019.76 1019.42 1019.68 1020.23 1020.24 1020.52 1020.42 1020.14 1019.62 1019.35 1019.46 1019.55 1019.40 1019.35 1019.46 1019.55 1019.67 1019.74 1019.94 1020.24 1020.55 1020.89 1021.41 1022.35 1022.50 1022.67 1023.20 1023.90 1024.39 1025.06 1025.56 1026.08 1026.68 1027.41 1028.00 1028.40 1029.05 1029.67 1030.28 1030.72
1023.93 1020.66 1020.03 1019.64 1019.59 1019.57 1019.77 1020.36 1020.53 1020.93 1020.95 1020.81 1020.58 1020.30 1020.20 1020.18 1020.35 1020.47 1020.61 1020.68 1020.82 1021.00 1021.34 1021.77 1022.04 1022.19 1022.51 1023.00 1023.43 1023.78 1024.28 1024.93 1025.60 1026.17 1026.84 1026.96 1027.35 1027.64 1028.01 1028.61 1029.05 1029.83 1030.68 1031.17
1022.55 1020.61 1019.84 1019.38 1019.53 1019.57 1020.03 1020.58 1021.03 1021.10 1021.39 1021.42 1021.16 1021.18 1021.07 1021.12 1021.11 1021.25 1021.43 1021.66 1021.85 1022.20 1022.62 1022.91 1023.11 1023.38 1023.67 1023.99 1024.24 1024.82 1025.46 1026.05 1026.63 1026.91 1027.31 1027.86 1028.18 1028.15 1028.30 1029.07 1029.36 1029.82 1030.56 1031.21
1020.89 1019.59 1019.63 1019.54 1019.80 1020.12 1020.44 1020.96 1021.35 1021.85 1021.85 1021.91 1021.88 1021.91 1021.86 1022.02 1022.13 1022.07 1022.25 1022.51 1022.72 1023.03 1023.27 1023.67 1023.85 1024.21 1024.49 1024.61 1024.82 1025.39 1026.18 1026.87 1027.51 1027.78 1028.21 1028.40 1028.50 1028.81 1029.18 1029.40 1029.46 1029.89 1030.53 1031.23
1019.84 1019.65 1019.89 1020.19 1020.47 1020.87 1021.27 1021.91 1022.48 1022.63 1022.75 1022.86 1022.91 1022.82 1022.72 1022.85 1022.87 1022.78 1022.89 1023.17 1023.45 1023.74 1023.90 1024.14 1024.30 1024.60 1025.06 1025.40 1025.63 1026.17 1026.75 1027.52 1028.17 1028.74 1029.23 1029.34 1029.55 1029.56 1029.42 1029.83 1029.88 1030.44 1030.95 1031.16
1020.28 1020.34 1020.78 1021.12 1021.38 1021.36 1022.15 1022.72 1023.20 1023.62 1023.80 1023.79 1023.73 1023.71 1023.57 1023.38 1023.49 1023.37 1023.69 1023.94 1024.11 1024.32 1024.60 1024.76 1025.01 1025.23 1025.31 1025.55 1026.18 1026.90 1027.53 1028.08 1028.66 1029.19 1029.63 1029.95 1030.30 1030.83 1030.81 1031.08 1031.63 1031.97 1032.11 1032.10
1020.70 1020.85 1021.18 1021.58 1022.11 1022.76 1023.14 1023.74 1024.43 1024.77 1024.92 1024.80 1024.59 1024.38 1024.31 1023.98 1023.98 1024.00 1024.26 1024.44 1024.67 1025.03 1025.35 1025.59 1025.86 1026.13 1026.20 1026.31 1026.80 1027.49 1028.00 1028.52 1028.85 1029.45 1029.98 1030.39 1030.81 1031.44 1032.28 1032.93 1033.21 1033.82 1033.80 1033.23
1021.28 1021.99 1022.36 1022.66 1023.08 1023.75 1024.32 1024.77 1025.04 1025.39 1025.65 1025.65 1025.62 1025.43 1025.05 1024.77 1024.77 1024.78 1024.92 1025.29 1025.50 1025.83 1026.24 1026.42 1026.66 1026.96 1026.99 1027.15 1027.49 1028.16 1028.55 1028.91 1029.34 1030.02 1030.91 1031.23 1031.37 1032.13 1033.16 1033.81 1034.30 1034.70 1034.57 1034.19
1022.26 1023.16 1023.16 1023.46 1023.54 1023.89 1024.35 1024.66 1024.80 1025.14 1025.42 1025.78 1025.95 1026.12 1025.83 1025.51 1025.57 1025.78 1026.05 1026.28 1026.45 1027.01 1027.20 1027.33 1027.59 1027.59 1027.51 1027.65 1027.88 1028.60 1029.20 1029.50 1029.90 1030.90 1031.59 1031.75 1032.18 1032.85 1033.24 1033.97 1034.58 1035.05 1034.96 1034.55
1020.89 1021.26 1021.27 1021.76 1022.58 1023.40 1024.44 1024.66 1024.84 1025.13 1025.53 1025.76 1026.11 1026.31 1026.53 1026.23 1026.03 1026.25 1026.80 1027.13 1027.28 1027.86 1027.98 1028.16 1027.92 1027.72 1027.80 1028.11 1028.41 1028.96 1029.61 1030.13 1030.72 1031.55 1032.24 1032.81 1033.22 1033.41 1033.80 1034.24 1034.87 1035.39 1034.91 1034.90
1020.96 1021.64 1021.91 1022.09 1022.30 1022.72 1023.33 1024.13 1024.53 1024.98 1025.32 1025.54 1026.11 1026.53 1026.78 1026.79 1026.56 1027.01 1027.46 1027.83 1028.45 1028.70 1028.55 1028.51 1028.26 1028.30 1028.48 1028.91 1029.12 1029.16 1029.67 1030.67 1031.37 1031.95 1032.52 1033.16 1033.80 1034.16 1034.38 1034.68 1034.98 1034.94 1034.97 1035.05
1021.49 1021.82 1022.31 1022.63 1022.83 1022.96 1023.43 1023.79 1024.35 1024.88 1025.21 1025.61 1026.15 1026.96 1027.47 1027.79 1027.69 1028.13 1028.67 1029.32 1029.39 1029.54 1029.11 1029.04 1029.07 1029.20 1029.33 1029.25 1029.51 1030.09 1030.45 1030.88 1031.61 1032.51 1033.30 1033.80 1034.18 1034.61 1034.57 1034.47 1034.84 1035.19 1035.25 1035.24
1020.75 1021.73 1022.40 1022.81 1023.16 1023.49 1023.88 1023.90 1024.28 1024.98 1025.50 1025.67 1026.19 1026.88 1027.49 1028.03 1028.49 1028.89 1029.75 1029.60 1028.89 1028.87 1029.00 1029.20 1029.34 1029.54 1029.72 1029.99 1030.10 1030.48 1031.11 1031.80 1032.19 1032.55 1033.07 1033.66 1034.23 1034.51 1034.62 1034.89 1035.01 1035.09 1034.99 1034.90
1020.59 1021.44 1022.21 1022.97 1023.51 1024.04 1024.32 1024.20 1024.30 1024.80 1025.46 1026.08 1026.43 1026.95 1027.63 1028.47 1028.62 1028.80 1028.80 1028.77 1028.41 1028.72 1028.89 1029.05 1029.15 1029.47 1029.63 1029.57 1029.98 1030.57 1031.07 1031.55 1032.04 1032.50 1032.96 1033.30 1033.66 1034.12 1034.50 1034.76 1034.72 1034.57 1034.50 1034.50
1019.91 1020.90 1022.00 1022.89 1023.27 1023.74 1024.31 1024.12 1024.11 1024.34 1024.95 1025.44 1025.93 1026.47 1026.83 1027.25 1027.83 1028.55 1028.35 1027.82 1028.16 1028.48 1028.79 1029.02 1029.26 1029.37 1029.52 1029.94 1030.20 1030.45 1030.87 1031.31 1031.71 1031.97 1032.29 1032.74 1033.26 1033.70 1033.91 1033.95 1033.87 1033.87 1033.96 1033.91
1020.08 1021.15 1022.02 1022.93 1023.15 1023.57 1024.19 1024.42 1024.45 1024.60 1024.91 1025.42 1025.86 1026.20 1026.56 1027.45 1027.92 1027.57 1027.57 1027.59 1027.92 1028.35 1028.56 1028.80 1028.77 1028.81 1029.48 1029.65 1029.91 1030.20 1030.49 1030.84 1031.24 1031.68 1032.11 1032.50 1032.80 1032.93 1032.99 1033.12 1033.25 1033.31 1033.39 1033.17
1019.90 1020.95 1021.77 1022.26 1022.76 1023.23 1023.48 1023.78 1024.47 1024.82 1025.01 1025.37 1025.82 1026.22 1026.30 1026.52 1026.79 1026.77 1027.28 1027.62 1028.00 1028.25 1028.42 1028.40 1028.37 1028.44 1029.04 1029.33 1029.58 1029.80 1029.99 1030.27 1030.64 1031.14 1031.60 1031.87 1031.93 1032.06 1032.27 1032.53 1032.68 1032.74 1032.58 1032.21
1020.06 1020.93 1021.47 1021.58 1021.77 1022.23 1022.77 1023.60 1023.92 1024.51 1025.10 1025.85 1026.09 1026.24 1026.38 1026.34 1026.39 1026.59 1026.86 1027.05 1027.45 1027.86 1028.02 1028.10 1028.22 1028.50 1028.92 1029.38 1029.82 1030.13 1030.32 1030.60 1030.78 1030.93 1031.14 1031.37 1031.60 1031.75 1031.86 1032.06 1032.18 1031.90 1031.46 1030.89
1020.18 1020.75 1021.60 1021.98 1021.84 1021.98 1022.41 1022.85 1023.49 1024.12 1024.60 1024.91 1025.24 1025.99 1026.02 1026.23 1026.35 1026.58 1026.91 1027.21 1027.36 1027.55 1027.78 1027.96 1028.23 1028.55 1028.90 1029.19 1029.57 1029.78 1029.98 1030.08 1030.17 1030.40 1030.74 1030.91 1031.09 1031.16 1031.22 1031.21 1030.94 1030.63 1030.23 1029.75
Wind_Speed
13 21 17 19 19 20 15 12 4 15 20 22 23 22 14 17 17 15 13 10 7 5 5 8 10 13 13 16 18 19 22 19 20 19 21 19 18 17 16 16 13 10 12 11
9 4 6 11 15 12 10 7 11 13 18 19 23 18 14 17 16 15 12 10 8 7 8 10 11 14 13 16 18 20 19 24 19 19 19 19 18 16 17 13 12 12 11 12
9 9 13 4 4 5 6 7 9 10 18 17 25 21 16 17 15 13 13 11 11 10 9 10 11 11 17 16 20 21 21 21 19 18 19 17 17 16 14 12 11 11 10 11
7 9 4 5 3 3 5 12 6 13 17 16 19 18 11 16 14 13 13 13 12 10 11 12 13 15 16 17 19 21 20 20 18 18 18 15 15 15 13 11 10 9 10 10
3 2 10 6 2 3 1 4 7 13 16 16 20 11 6 18 14 13 13 11 13 13 13 14 14 15 18 18 20 20 19 18 16 15 16 15 15 14 11 11 10 9 8 8
4 1 5 5 1 4 4 4 10 10 14 17 16 11 8 16 14 13 13 12 12 14 15 14 13 16 18 17 18 17 15 15 13 13 14 14 14 13 10 11 11 8 9 7
3 5 11 11 6 3 4 5 8 7 9 12 8 4 8 9 11 11 12 14 13 15 15 13 13 16 17 16 16 14 13 11 12 12 14 12 12 11 11 11 10 9 10 7
3 3 10 2 3 3 3 4 4 4 6 9 10 9 7 8 9 10 11 12 12 13 13 12 13 15 15 15 10 11 12 13 12 10 9 10 12 10 10 9 10 9 8 6
11 9 6 2 3 3 2 3 4 4 5 7 8 8 8 8 8 9 10 10 9 10 12 12 11 11 14 9 10 12 13 12 12 11 10 9 9 9 8 8 7 6 6 6
0 6 8 5 4 3 4 3 1 2 4 4 3 5 6 7 7 8 8 9 8 10 11 11 10 11 11 9 9 11 13 11 9 10 8 7 6 5 7 6 6 6 6 6
7 11 11 13 7 5 3 3 3 2 2 4 4 5 6 7 7 7 7 8 8 9 9 9 8 9 8 8 10 11 10 9 8 7 8 7 6 5 5 3 5 6 4 5
9 7 3 1 4 4 4 1 4 2 3 5 6 5 6 6 5 5 6 6 8 8 8 7 8 7 6 6 8 10 10 7 5 6 5 6 7 8 14 14 16 15 13 7
5 4 4 3 2 1 3 2 1 2 3 3 3 2 3 3 3 6 6 6 7 7 7 7 7 8 6 5 6 6 9 8 5 5 5 6 6 8 10 10 15 14 12 10
3 5 1 4 4 6 5 3 4 3 2 1 2 2 2 5 3 7 6 5 6 7 6 6 6 6 5 7 7 6 6 7 5 4 4 4 4 3 5 7 4 2 5 5
9 4 3 3 4 3 3 3 2 1 1 2 3 4 2 6 6 6 5 5 6 6 6 6 6 4 3 5 7 8 6 5 5 4 4 5 5 5 4 4 2 2 2 2
6 4 3 3 4 3 3 2 3 3 2 2 3 3 4 5 6 6 5 3 5 5 4 4 5 2 3 4 6 5 3 6 5 4 4 4 5 5 4 3 3 3 2 2
7 3 2 5 8 7 9 5 5 5 4 6 7 5 4 6 6 5 5 4 6 5 4 3 3 1 2 4 5 4 3 4 7 4 2 2 3 4 4 4 4 2 3 2
3 3 8 6 8 9 6 6 6 7 6 5 6 6 4 6 6 6 6 5 6 4 2 0 1 2 3 4 6 5 4 4 4 5 3 3 2 2 3 3 3 3 2 3
4 5 4 5 5 5 7 7 7 6 7 8 8 8 5 3 5 5 5 5 4 4 4 2 2 4 4 2 3 4 6 5 4 3 3 4 3 1 3 3 3 2 1 2
4 3 4 3 2 5 7 3 7 6 4 7 6 6 5 3 3 5 3 3 4 2 2 2 2 3 3 4 6 4 4 5 6 4 3 2 3 3 2 2 2 2 2 3
9 8 6 7 4 1 3 7 10 10 7 7 8 7 6 5 5 6 4 3 5 4 2 2 3 2 2 4 5 5 4 3 4 6 5 5 4 3 2 2 2 2 4 3
7 8 8 7 6 5 2 4 5 8 8 6 5 6 8 6 5 4 4 4 2 5 3 3 3 5 4 7 5 5 5 5 4 4 4 4 4 3 2 3 3 3 3 4
9 6 6 7 7 7 4 4 5 9 10 9 10 11 10 7 6 6 3 6 5 5 3 3 4 6 7 4 4 5 6 6 6 5 4 3 3 3 3 4 4 3 4 5
7 6 5 5 6 5 7 5 4 4 4 4 5 6 7 5 3 3 2 5 8 8 4 4 6 8 6 4 5 5 5 4 4 3 3 4 4 4 4 4 4 3 4 7
7 7 7 9 9 7 5 6 5 3 5 4 4 4 4 1 3 4 4 4 7 5 4 8 10 9 5 4 5 5 5 5 5 4 5 4 4 4 3 3 4 5 5 6
9 8 7 7 5 6 6 8 7 5 5 4 2 3 3 3 3 4 4 6 5 6 5 5 4 4 4 4 3 4 4 4 5 5 5 5 4 3 4 4 5 6 6 7
5 5 4 2 0 5 7 8 8 9 7 6 4 3 4 3 3 4 4 4 4 4 4 3 4 4 4 4 4 3 3 4 5 4 4 4 4 4 4 5 5 6 6 6
Wind_Direction
255 262 275 271 279 292 297 294 277 295 299 315 320 325 325 330 332 336 337 345 358 14 60 66 77 82 89 95 100 107 107 102 108 109 107 101 102 101 97 103 111 124 114 111
292 286 246 268 285 273 302 290 270 286 304 331 320 328 345 344 347 347 349 1 14 30 60 77 85 93 89 96 98 102 100 104 103 103 102 105 105 107 107 113 114 117 115 114
271 323 312 348 241 276 301 270 296 326 318 323 327 336 356 349 357 359 1 14 26 31 57 77 84 96 98 105 106 101 103 101 101 105 102 102 111 112 110 112 116 114 108 103
277 339 11 242 258 266 257 287 343 320 319 330 321 325 5 1 3 8 16 24 33 41 60 69 84 87 102 95 95 98 97 97 101 104 105 113 105 106 112 106 105 107 103 104
301 232 290 308 50 328 5 294 345 318 327 338 328 315 16 359 10 23 23 37 50 51 56 68 76 86 88 92 92 91 93 96 103 113 116 114 114 109 106 113 112 100 99 109
5 16 240 242 6 307 148 279 356 347 335 336 336 13 356 349 3 30 34 36 49 59 55 55 66 81 79 81 85 88 95 103 109 107 106 109 115 113 111 101 100 109 103 87
249 273 283 257 278 156 36 309 336 341 333 332 351 359 332 351 20 28 35 41 46 56 52 45 59 75 73 76 76 84 94 99 93 97 104 104 102 97 100 106 112 107 96 83
145 224 278 207 5 61 262 312 308 331 326 330 333 356 11 14 31 42 47 45 44 60 55 45 56 75 79 79 84 92 95 91 88 85 94 94 95 99 105 113 105 102 102 86
188 217 240 258 220 226 210 250 322 321 323 333 342 2 18 27 33 46 54 59 55 66 65 54 61 75 89 89 93 91 87 86 82 81 79 90 110 112 109 105 114 115 109 99
329 253 244 211 201 205 219 159 315 281 325 344 2 360 29 42 52 56 51 60 64 68 63 66 63 73 79 85 96 99 97 89 87 96 99 85 88 103 114 122 112 112 119 112
267 279 279 266 222 205 211 153 107 322 56 22 12 44 57 49 44 53 59 63 75 84 79 77 78 78 85 99 106 99 98 100 100 89 90 92 80 87 83 54 130 129 111 128
219 231 192 275 155 161 190 64 17 28 46 45 38 59 63 55 46 66 73 79 85 86 88 86 88 82 71 75 101 110 104 99 98 103 93 98 103 101 100 105 106 116 128 136
217 183 182 102 174 137 140 123 77 41 43 68 32 37 73 78 42 82 77 85 102 112 106 104 103 96 82 74 85 92 117 114 98 104 129 125 116 122 124 110 113 120 128 122
207 129 143 195 208 172 127 124 93 89 38 53 110 81 99 105 90 86 84 92 106 112 111 117 106 107 104 110 100 94 97 104 128 136 130 117 113 111 123 131 132 83 91 103
201 209 171 107 91 83 61 91 71 135 14 57 27 120 124 111 98 89 82 83 91 100 100 109 110 89 98 116 123 137 135 141 141 130 119 119 115 97 99 113 137 160 329 21
124 96 74 167 188 141 120 54 153 210 182 143 137 135 130 100 105 93 87 94 125 130 109 108 101 56 35 103 111 110 93 120 103 105 119 130 128 127 128 134 143 186 202 232
112 231 197 236 199 194 204 192 188 187 161 166 179 164 128 121 107 110 90 66 87 79 63 82 116 343 87 105 118 115 115 106 106 88 101 107 126 154 152 148 163 193 231 259
165 170 189 169 184 193 211 210 183 170 177 183 144 119 117 166 156 144 135 131 110 106 78 291 184 157 139 146 135 127 120 118 119 129 119 103 133 135 146 148 163 172 243 294
197 167 172 178 193 171 155 169 179 169 156 148 146 167 172 175 151 141 129 102 118 151 229 285 231 120 115 126 108 120 120 117 103 96 111 117 98 127 149 158 173 208 239 276
140 107 135 147 154 148 154 170 148 147 146 137 116 132 158 183 116 102 71 162 201 217 344 352 64 113 126 105 98 73 94 123 133 129 131 140 147 175 189 152 172 237 252 262
168 159 164 171 173 56 115 147 148 156 167 147 160 169 153 123 123 135 119 186 236 208 209 160 131 118 119 122 116 122 119 125 154 165 168 170 162 182 189 226 238 242 261 268
155 169 174 161 153 137 168 142 127 131 148 144 124 128 133 159 174 214 240 202 182 171 164 173 171 169 153 140 137 145 151 158 167 165 168 168 169 169 204 224 243 254 258 260
169 156 133 153 165 157 137 167 165 161 165 169 167 171 181 178 171 157 225 210 182 182 170 171 173 162 157 149 157 156 164 172 181 183 174 163 168 175 199 224 239 248 265 266
138 136 139 121 122 128 162 203 170 172 153 154 172 172 155 154 266 239 299 151 154 176 174 176 184 167 158 155 163 172 173 170 171 169 163 170 190 201 210 224 243 245 257 266
137 139 142 158 169 184 145 150 123 143 156 180 179 182 190 215 154 189 169 166 171 155 178 195 185 163 162 168 175 181 180 178 176 172 187 199 204 210 218 224 241 257 263 262
154 169 173 176 178 160 153 161 179 174 156 173 247 200 199 208 175 151 158 158 161 171 184 192 175 171 174 183 187 184 176 174 182 197 202 210 211 218 229 237 247 251 256 262
106 117 119 101 211 157 169 178 165 185 190 183 185 185 187 172 160 155 153 154 171 182 179 180 172 178 176 178 184 186 183 189 196 199 205 210 213 225 233 242 249 256 261 264